This is the latest recevied weather packets stored in our database for station/object KB3FKJ. If no packets are shown the sender has not sent any weather packets the latest 10 day(s).
| Time | Temp. | Humidity | Pressure | Rain* | Wind** | Luminosity | Snow |
|---|---|---|---|---|---|---|---|
| 1777488648 | 11.67° C | 94% | 1008.4 hPa | 0 mm | - | 31 W/m² | - |
| 1777488346 | 12.22° C | 93% | 1008.5 hPa | 0 mm | - | 15 W/m² | - |
| 1777488044 | 12.22° C | 93% | 1008.7 hPa | 0 mm | - | 9 W/m² | - |
| 1777487741 | 12.78° C | 93% | 1008.4 hPa | 0 mm | - | 35 W/m² | - |
| 1777487439 | 12.78° C | 92% | 1008.6 hPa | 0 mm | - | 70 W/m² | - |
| 1777487136 | 13.33° C | 92% | 1008.4 hPa | 0 mm | - | 75 W/m² | - |
| 1777486832 | 13.33° C | 91% | 1008.4 hPa | 0 mm | - | 123 W/m² | - |
| 1777486529 | 13.33° C | 91% | 1008.6 hPa | 0 mm | - | 150 W/m² | - |
| 1777486227 | 13.33° C | 91% | 1008.8 hPa | 0 mm | - | 177 W/m² | - |
| 1777485925 | 13.33° C | 91% | 1008.8 hPa | 0 mm | - | 207 W/m² | - |
| 1777485620 | 13.33° C | 90% | 1008.4 hPa | 0 mm | - | 228 W/m² | - |
| 1777485315 | 12.78° C | 91% | 1008.7 hPa | 0 mm | - | 196 W/m² | - |
| 1777485012 | 12.78° C | 92% | 1008.5 hPa | 0 mm | - | 217 W/m² | - |
| 1777484709 | 12.78° C | 93% | 1008.4 hPa | 0 mm | - | 185 W/m² | - |
| 1777484406 | 12.78° C | 93% | 1008.5 hPa | 0 mm | - | 139 W/m² | - |
| 1777484102 | 12.22° C | 92% | 1008.6 hPa | 0 mm | - | 162 W/m² | - |
| 1777483798 | 12.22° C | 92% | 1009 hPa | 0 mm | - | 209 W/m² | - |
| 1777483495 | 12.78° C | 94% | 1009.1 hPa | 0 mm | - | 231 W/m² | - |
| 1777483190 | 12.22° C | 94% | 1009.2 hPa | 0 mm | - | 265 W/m² | - |
| 1777482887 | 11.67° C | 95% | 1009.4 hPa | 1.27 mm | - | 174 W/m² | - |
| 1777482582 | 11.67° C | 95% | 1009.8 hPa | 1.27 mm | - | 141 W/m² | - |
| 1777482280 | 11.67° C | 95% | 1009.9 hPa | 0 mm | - | 115 W/m² | - |
| 1777481977 | 11.67° C | 95% | 1010 hPa | 0 mm | - | 105 W/m² | - |
| 1777481675 | 11.67° C | 95% | 1010.2 hPa | 0 mm | - | 76 W/m² | - |
| 1777481372 | 11.11° C | 95% | 1010.3 hPa | 0 mm | - | 98 W/m² | - |
* Rain latest hour (hover to see other rain measurements)
** Current wind speed in m/s (hover to see current wind gust speed)